TimeEDT,TemperatureF,Dew PointF,Humidity,Sea Level PressureIn,VisibilityMPH,Wind Direction,Wind SpeedMPH,Gust SpeedMPH,PrecipitationIn,Events,Conditions,WindDirDegrees,DateUTC
12:53 AM,55.9,48.9,77,30.14,10.0,South,5.8,-,N/A,,Clear,190,2013-04-08 04:53:00
1:53 AM,55.9,50.0,80,30.14,10.0,South,5.8,-,N/A,,Clear,190,2013-04-08 05:53:00
2:53 AM,54.0,48.9,83,30.13,10.0,South,3.5,-,N/A,,Clear,190,2013-04-08 06:53:00
3:53 AM,50.0,46.9,89,30.12,10.0,Calm,Calm,-,N/A,,Clear,0,2013-04-08 07:53:00
4:53 AM,48.9,46.0,90,30.13,9.0,Calm,Calm,-,N/A,,Clear,0,2013-04-08 08:53:00
5:53 AM,48.9,46.9,93,30.14,5.0,Calm,Calm,-,N/A,,Clear,0,2013-04-08 09:53:00
6:05 AM,48.2,46.4,93,30.14,2.0,Calm,Calm,-,N/A,,Clear,0,2013-04-08 10:05:00
6:14 AM,48.2,46.4,93,30.14,6.0,Calm,Calm,-,N/A,,Clear,0,2013-04-08 10:14:00
6:53 AM,48.0,46.0,93,30.16,5.0,South,3.5,-,N/A,,Clear,170,2013-04-08 10:53:00
7:53 AM,54.0,52.0,93,30.18,6.0,South,3.5,-,N/A,,Clear,190,2013-04-08 11:53:00
8:53 AM,60.1,55.0,83,30.19,9.0,SSW,8.1,-,N/A,,Clear,210,2013-04-08 12:53:00
9:53 AM,66.0,55.9,70,30.18,10.0,SSW,9.2,-,N/A,,Clear,210,2013-04-08 13:53:00
10:53 AM,71.1,54.0,55,30.18,10.0,SW,11.5,-,N/A,,Clear,230,2013-04-08 14:53:00
11:53 AM,73.0,55.0,53,30.17,10.0,SSW,10.4,-,N/A,,Clear,210,2013-04-08 15:53:00
12:53 PM,75.0,53.1,46,30.15,10.0,SSW,11.5,-,N/A,,Clear,200,2013-04-08 16:53:00
1:53 PM,78.1,54.0,43,30.12,10.0,SSW,13.8,-,N/A,,Clear,210,2013-04-08 17:53:00
2:53 PM,79.0,53.1,40,30.10,10.0,SSW,13.8,-,N/A,,Partly Cloudy,210,2013-04-08 18:53:00
3:53 PM,81.0,52.0,36,30.08,10.0,SSW,12.7,18.4,N/A,,Scattered Clouds,200,2013-04-08 19:53:00
4:53 PM,79.0,48.0,34,30.07,10.0,SSW,13.8,-,N/A,,Partly Cloudy,210,2013-04-08 20:53:00
5:53 PM,77.0,48.9,37,30.06,10.0,SSW,10.4,-,N/A,,Partly Cloudy,200,2013-04-08 21:53:00
6:53 PM,75.0,48.9,40,30.07,10.0,SSW,9.2,-,N/A,,Clear,200,2013-04-08 22:53:00
7:53 PM,70.0,50.0,49,30.08,10.0,South,4.6,-,N/A,,Clear,180,2013-04-08 23:53:00
8:53 PM,66.0,51.1,59,30.09,10.0,South,5.8,-,N/A,,Clear,190,2013-04-09 00:53:00
9:53 PM,66.0,51.1,59,30.12,10.0,South,4.6,-,N/A,,Clear,170,2013-04-09 01:53:00
10:53 PM,66.9,52.0,59,30.13,10.0,South,9.2,-,N/A,,Clear,190,2013-04-09 02:53:00
11:53 PM,64.9,52.0,63,30.12,10.0,South,9.2,-,N/A,,Clear,190,2013-04-09 03:53:00